Weather in Mordovskiye Yunki

Russia / Republic of Mordovia     54°08′38″N   43°27′26″E
temp.,
°C
wind,
m/s
gust,
m/s
humid.,
%
clouds,
%
prec.,
mm/h
press.,
hPa
HPBL,
m
3 march, wed
wed300:00−5wnw479686 0.0 1006126
03:00−3nw5109489 0.2 1007417
06:00−3nnw6118999 0.1 1008790
09:00−7nw6129387 0.1 1010522
12:00−5nw61089100 0.0 1011652
15:00−3wnw6108897 0.1 1012907
18:00−5wnw41087100 0.0 1011384
21:00−6wsw5119581 0.1 1012267
4 march, thu
thu400:00−3wsw71294100 0.1 1009631
03:00−3wsw71394100 0.3 1007733
06:00−3wsw81495100 0.3 1004690
09:00−1wsw91595100 0.8 1002785
12:000w91594100 0.6 1001958
15:000wsw81398100 1.3 1001804
18:000wsw61197100 1.4 1000604
21:00−1wsw4898100 3.1 1000445
5 march, fri
fri500:00−2sw1498100 2.3 999274
03:00−2nnw2498100 4.1 998206
06:00−4n5896100 1.1 999369
09:00−5nnw5894100 1.4 1003408
12:00−5nnw4690100 0.0 1006535
15:00−5nnw358780 0.1 1009525
18:00−10nnw119019 0.0 101121
21:00−11s229040 0.0 101321
6 march, sat
sat600:00−11s339361 0.0 101321
03:00−11ssw339480 0.0 101336
06:00−10wsw359697 0.1 1012111
09:00−11wnw489692 0.1 1013220
12:00−7nw578868 0.0 1013669
15:00−7wnw578684 0.1 1013922
18:00−11wnw5108992 0.1 1014240
21:00−15wnw449273 0.1 101669
7 march, sun
sun700:00−16wsw459313 0.0 101676
03:00−16sw489319 0.0 1015136
06:00−15sw6129029 0.0 1012247
09:00−10sw9168559 0.0 1009674
12:00−6sw111779100 0.0 10061061
15:00−5sw121992100 0.4 10021293
18:00−4sw111893100 1.4 9991204
21:00−3wsw101894100 2.7 9981125